Other Surface Observations
Issued by NWS Tucson, AZ

Home | Current Version | Previous Version | Text Only | Print | Product List | Glossary On
Versions: 1 2 3 4 5 6 7 8 9 10 11 12 13 14 15 16 17 18 19 20 21 22 23 24 25 26 27 28 29 30 31 32 33 34 35 36 37 38 39 40 41 42 43 44 45 46 47 48 49 50
000
SXUS55 KTWC 302215
OSOTWC

WEATHER ROUNDUP FOR SOUTHEAST ARIZONA
NATIONAL WEATHER SERVICE TUCSON AZ
315 PM MST TUE JUN 30 2015

AZZ504>506-514-302315-
LOCATION       SKY/WX    TMP DP  RH WIND       PRES   REMARKS
TUCSON         SUNNY     98  59  27 W16       29.92F
DAVIS-MONTHAN  SUNNY     97  59  28 NW12G21   29.90F
CHILDRENS PARK N/A       93  60  33 NW8               PIMA CO DEQ
ALVERNON/22ND  N/A      N/A N/A N/A N/A               PIMA CO DEQ
CHERRY/GLENN   N/A      N/A N/A N/A N/A               PIMA CO DEQ
TANGERINE      N/A       95 N/A N/A W9                PIMA CO DEQ
CONTL RANCH    N/A       96  61  32 W8                PIMA CO DEQ
GRANT/1ST      N/A       95  60  31 NE7               PIMA CO DEQ
CRAYCROFT/22ND N/A      N/A N/A N/A N/A               PIMA CO DEQ
GOLFLINKS/KOLB N/A      N/A N/A N/A N/A               PIMA CO DEQ
AJO/12TH       N/A       95  59  30 NW7               PIMA CO DEQ
SAGUARO EAST   N/A      N/A N/A N/A N/A               PIMA CO DEQ
FAIRGROUNDS    N/A       95 N/A N/A NW8               PIMA CO DEQ
SAGUARO        N/A       98  61  30 W12G19            *SABINO CYN
SAN CARLOS     N/A      105  53  18 SW8G12            *SAN CARLOS
GREEN VALLEY   N/A       92  60  34 NW6               PIMA CO DEQ
HORSE CAMP CYN N/A       92  54  28 W12G23            *ARAVAIPA CYN
RINCON MTNS    N/A       72  56  58 SW3               *NR MANNING CAMP
$$

AZZ509>511-302315-
LOCATION       SKY/WX    TMP DP  RH WIND       PRES   REMARKS
SAFFORD        SUNNY    102  49  16 VRB5      29.88F
STRAY HORSE    N/A       84  46  27 SE4G10            *
TRAIL CABIN    N/A       89  47  24 NE4G10            *N OF GRANVILLE
BLACK HILLS    N/A      102  49  17 SW7G14            *N OF FT THOMAS
DRY LAKE       N/A       80  48  33 SW3G12            *NATANES MTNS
NOON CREEK     N/A       96  48  20 NE7G16            *PINALENO MTNS
COLUMBINE      N/A       70  42  36 SW5               *PINALENO MTNS
GUTHRIE        N/A       91  46  21 NE5G22            *SW OF GUTHRIE
$$

AZZ502-503-513-302315-
LOCATION       SKY/WX    TMP DP  RH WIND       PRES   REMARKS
NOGALES        MOSUNNY   93  60  33 NW14G24   29.98F
SELLS          N/A       94  64  37 W7G13             *
SASABE         N/A       91  63  39 SE4G13            *ALTAR VLY
HOPKINS        N/A       76  56  50 NE7G15            *SANTA RITA MTNS
CARR CYN       N/A       92  45  20 E3                *W OF HEREFORD
$$

AZZ507-508-512-302315-
LOCATION       SKY/WX    TMP DP  RH WIND       PRES   REMARKS
SIERRA VISTA   PTSUNNY   91  48  22 SE10G17   30.03F
DOUGLAS        MOSUNNY   97  45  16 E9        29.96F
EMPIRE MTNS    N/A       88  59  38 NW12G23           *LAS CIENEGAS NCA
MULESHOE RANCH N/A       95  54  25 W7G16             *PRESERVE
HEADQUARTERS   N/A       94  39  15 E6G13             *CHIRICAHUA MTNS
$$

.............................NOTES.............................
THIS IS AN AUTOMATED COLLECTIVE WITH MINIMAL QUALITY CONTROL.
PIMA CO DEQ SITES HAVE NONSTANDARD WIND SENSOR HEIGHTS.
PIMA CO DEQ SITES DO NOT REPORT WIND GUSTS.
* INDICATES WIND SENSORS LOCATED AT 20 FEET INSTEAD OF 33 FEET.
..............................KEY..............................
SKY/WX - SKY CONDITION/WEATHER
TMP    - TEMPERATURE IN FAHRENHEIT
DP     - DEWPOINT IN FAHRENHEIT
RH     - RELATIVE HUMIDITY IN PERCENT
WIND   - DIRECTION AND SPEED IN MILES PER HOUR (MPH)
VRB    - VARIABLE WIND DIRECTION
PRES   - MEAN SEA LEVEL PRESSURE IN INCHES OF MERCURY
         F - FALLING PRESSURE   R - RISING PRESSURE
         S - STEADY PRESSURE
VSB    - VISIBILITY IN MILES
HX     - HEAT INDEX IN FAHRENHEIT
WCI    - WIND CHILL INDEX IN FAHRENHEIT
N/A    - NOT AVAILABLE
AFB    - AIR FORCE BASE
         DAVIS-MONTHAN IS DAVIS-MONTHAN AIR FORCE BASE
CYN    - CANYON
MTNS   - MOUNTAINS
NCA    - NATIONAL CONSERVATION AREA
NR     - NEAR
VLY    - VALLEY
CONTL  - CONTINENTAL
PIMA CO DEQ - PIMA COUNTY DEPT OF ENVIRONMENTAL QUALITY



USA.gov is the U.S. government's official web portal to all federal, state and local government web resources and services.